Location: ????????
(56.0167°N, 38.0333°E)
Time: 23:04:48
(UTC+00:00)

Envisat - Visible Passes

Search period start: 17 January 2026 00:00
Search period end: 27 January 2026 00:00
Orbit: 761 x 763 km, 98.4° (Epoch: 17 January)

Date Brightness Start Highest point End Pass type
(mag) Time Alt. Az. Time Alt. Az. Time Alt. Az.
18 Jan 5.6 01:41:39 10° N 01:41:41 10° N 01:41:41 10° N visible
20 Jan 5.5 02:05:19 10° N 02:05:29 11° N 02:05:29 11° N visible
21 Jan 5.6 01:27:08 10° N 01:27:19 11° N 01:27:19 11° N visible
22 Jan 5.4 02:29:04 10° N 02:29:17 11° N 02:29:17 11° N visible
23 Jan 5.4 01:50:45 10° N 01:51:08 12° N 01:51:08 12° N visible
24 Jan 5.6 01:12:39 10° N 01:12:58 12° N 01:12:58 12° N visible
24 Jan 5.3 02:53:04 10° NNW 02:53:06 10° NNW 02:53:06 10° NNW visible
25 Jan 5.8 00:34:44 10° NNE 00:34:49 10° NNE 00:34:49 10° NNE visible
25 Jan 5.3 02:14:26 10° N 02:14:56 12° N 02:14:56 12° N visible
26 Jan 5.4 01:36:13 10° N 01:36:48 13° N 01:36:48 13° N visible
